Location: Bletchingley
(51.2333°N, 0.1000°W)
Time: 12:32:34
(UTC+00:00)

CZ-2C R/B - Pass Details

Date: 18 September 2020
Orbit: 785 x 870 km, 98.2° (Epoch: 25 October)

Event Time Altitude Azimuth Distance (km) Brightness Sun altitude
Rises 20:56:20 0° 9° (N) 3,404 6.2 -25.3°
Reaches altitude 10° 20:58:50 10° 1° (N) 2,478 5.6 -25.6°
Maximum altitude 21:03:49 36° 297° (WNW) 1,325 4.2 -26.2°
Drops below altitude 10° 21:08:51 10° 232° (SW) 2,503 5.2 -26.8°
Sets 21:11:23 0° 224° (SW) 3,442 5.9 -27.1°
